Overview Statistics Trail Chart Weather Telemetry Raw packets
 

This is the latest recevied weather packets stored in our database for station/object KC4GS-13. If no packets are shown the sender has not sent any weather packets the latest 10 day(s).

<< 14 15 16 17 18 19 20 >>
Time Temp. Humidity Pressure Rain* Wind** Luminosity Snow
1788524342 23.89° C 95% 1018.7 hPa 0 mm - 52 W/m² -
1788524039 23.33° C 95% 1019.1 hPa 0 mm - 44 W/m² -
1788523735 23.33° C 95% 1018.9 hPa 0 mm - 45 W/m² -
1788523431 23.33° C 95% 1019 hPa 0 mm - 40 W/m² -
1788523126 22.78° C 95% 1018.8 hPa 0 mm - 46 W/m² -
1788522821 22.78° C 95% 1019 hPa 0 mm - 31 W/m² -
1788522516 22.78° C 95% 1019.2 hPa 0 mm - 32 W/m² -
1788522210 22.22° C 95% 1018.9 hPa 0 mm - 25 W/m² -
1788521905 22.22° C 95% 1018.9 hPa 0 mm - 17 W/m² -
1788521604 22.22° C 95% 1018.8 hPa 0 mm - 12 W/m² -
1788521300 22.22° C 95% 1018.8 hPa 0 mm - 11 W/m² -
1788520995 22.22° C 95% 1018.9 hPa 0 mm - 9 W/m² -
1788520691 21.67° C 95% 1018.7 hPa 0 mm - 5 W/m² -
1788520386 21.67° C 95% 1018.8 hPa 0 mm - 3 W/m² -
1788520082 21.67° C 95% 1018.6 hPa 0 mm - 0 W/m² -
1788519781 21.67° C 95% 1018.8 hPa 0 mm - 0 W/m² -
1788519476 22.22° C 95% 1018.7 hPa 0 mm - 0 W/m² -
1788519170 22.22° C 95% 1018.6 hPa 0 mm - 0 W/m² -
1788518866 22.22° C 95% 1018.6 hPa 0 mm - 0 W/m² -
1788518561 22.22° C 95% 1018.3 hPa 0 mm - 0 W/m² -
1788518258 22.22° C 95% 1018.3 hPa 0 mm - 0 W/m² -
1788517952 22.22° C 95% 1018.6 hPa 0 mm - 0 W/m² -
1788517648 22.22° C 95% 1018.4 hPa 0 mm - 0 W/m² -
1788517343 22.22° C 94% 1018.6 hPa 0 mm - 0 W/m² -
1788517040 22.22° C 94% 1018.4 hPa 0 mm - 0 W/m² -

* Rain latest hour (hover to see other rain measurements)
** Current wind speed in m/s (hover to see current wind gust speed)